Location: Newark
(41.6500°N, 71.4833°W)
Time: 22:16:27
(UTC+00:00)

Vanguard 1 Rocket - Visible Passes

Search period start: 17 January 2020 00:00
Search period end: 27 January 2020 00:00
Orbit: 650 x 4226 km, 34.3° (Epoch: 16 January)

Date Brightness Start Highest point End Pass type
(mag) Time Alt. Az. Time Alt. Az. Time Alt. Az.
17 Jan 11.9 01:24:58 10° WSW 01:33:39 13° WSW 01:41:51 10° SW visible
17 Jan 11.5 21:30:53 10° W 21:51:43 51° SSW 22:15:34 10° SE visible
18 Jan 11.8 00:03:53 10° W 00:21:03 24° SW 00:37:18 10° S visible
18 Jan 11.8 22:47:52 10° W 23:07:41 35° SW 23:28:08 10° SSE visible
19 Jan 11.7 21:33:51 10° W 21:53:41 45° SSW 22:16:57 10° SSE visible
20 Jan 12.0 00:08:40 10° W 00:22:38 18° SW 00:36:19 10° SSW visible
20 Jan 11.9 22:51:24 10° W 23:09:25 29° SW 23:28:32 10° S visible
21 Jan 11.9 21:36:59 10° W 21:55:38 39° SW 22:17:58 10° SSE visible
22 Jan 12.2 00:15:41 10° WSW 00:24:18 13° SW 00:32:57 10° SSW visible
22 Jan 12.1 22:55:31 10° W 23:11:13 23° SW 23:28:09 10° S visible
23 Jan 12.1 21:40:22 10° W 21:57:37 33° SW 22:18:30 10° SSE visible
24 Jan 12.3 23:00:44 10° W 23:13:05 17° SW 23:26:27 10° SSW visible
25 Jan 12.2 21:44:11 10° W 21:59:39 26° SW 22:18:26 10° S visible
26 Jan 12.5 23:09:07 10° WSW 23:15:06 11° SW 23:21:22 10° SW visible
